This is the latest recevied weather packets stored in our database for station/object W0SS-13. If no packets are shown the sender has not sent any weather packets the latest 10 day(s).
| Time | Temp. | Humidity | Pressure | Rain* | Wind** | Luminosity | Snow |
|---|---|---|---|---|---|---|---|
| 1778075420 | 10.56° C | 63% | 1019.7 hPa | 0 mm | - | 301 W/m² | - |
| 1778075116 | 10.56° C | 60% | 1019.4 hPa | 0 mm | - | 281 W/m² | - |
| 1778074812 | 10.56° C | 62% | 1019.4 hPa | 0 mm | - | 284 W/m² | - |
| 1778074510 | 10.56° C | 65% | 1019 hPa | 0 mm | - | 228 W/m² | - |
| 1778074206 | 10.56° C | 65% | 1019.1 hPa | 0 mm | - | 224 W/m² | - |
| 1778073903 | 10° C | 65% | 1019 hPa | 0 mm | - | 297 W/m² | - |
| 1778073601 | 10° C | 67% | 1019.1 hPa | 0 mm | - | 151 W/m² | - |
| 1778073298 | 10° C | 67% | 1018.8 hPa | 0 mm | - | 167 W/m² | - |
| 1778072994 | 10° C | 71% | 1019 hPa | 0 mm | - | 286 W/m² | - |
| 1778072691 | 9.44° C | 74% | 1018.8 hPa | 0 mm | - | 206 W/m² | - |
| 1778072389 | 9.44° C | 77% | 1018.7 hPa | 0 mm | - | 174 W/m² | - |
| 1778072087 | 8.89° C | 78% | 1018.7 hPa | 0 mm | - | 154 W/m² | - |
| 1778071784 | 8.33° C | 79% | 1018.6 hPa | 0 mm | - | 65 W/m² | - |
| 1778071482 | 8.33° C | 79% | 1018.3 hPa | 0 mm | - | 89 W/m² | - |
| 1778071180 | 8.33° C | 79% | 1018.5 hPa | 0 mm | - | 108 W/m² | - |
| 1778070877 | 8.33° C | 79% | 1018.3 hPa | 0 mm | - | 76 W/m² | - |
| 1778070575 | 8.33° C | 79% | 1018.5 hPa | 0 mm | - | 63 W/m² | - |
| 1778070271 | 8.33° C | 79% | 1018 hPa | 0 mm | - | 54 W/m² | - |
| 1778069970 | 7.78° C | 79% | 1017.9 hPa | 0 mm | - | 55 W/m² | - |
| 1778069666 | 7.78° C | 79% | 1017.8 hPa | 0 mm | - | 46 W/m² | - |
| 1778069363 | 7.78° C | 79% | 1017.7 hPa | 0 mm | - | 41 W/m² | - |
| 1778069061 | 7.78° C | 81% | 1017.4 hPa | 0 mm | - | 38 W/m² | - |
| 1778068758 | 7.78° C | 81% | 1017.5 hPa | 0 mm | - | 29 W/m² | - |
| 1778068456 | 7.78° C | 81% | 1017.3 hPa | 0 mm | - | 14 W/m² | - |
| 1778068154 | 7.78° C | 80% | 1017.2 hPa | 0 mm | - | 17 W/m² | - |
* Rain latest hour (hover to see other rain measurements)
** Current wind speed in m/s (hover to see current wind gust speed)